Waarnemingen

Advertentie
Mijn weer
Vlissingen, Nederland (6310): temperatuur & dauwpunt: 22.04.2017 02:00:00 - 28.04.2017 02:00:00 (CEST)Vlissingen, Nederland (6310): temperatuur 5cm: 22.04.2017 02:00:00 - 28.04.2017 02:00:00 (CEST)Vlissingen, Nederland (6310): windsnelheid & windstoten: 22.04.2017 02:00:00 - 28.04.2017 02:00:00 (CEST)Vlissingen, Nederland (6310): windrichting: 22.04.2017 02:00:00 - 28.04.2017 02:00:00 (CEST)Vlissingen, Nederland (6310): luchtdruk: 22.04.2017 02:00:00 - 28.04.2017 02:00:00 (CEST)Vlissingen, Nederland (6310): zicht: 22.04.2017 02:00:00 - 28.04.2017 02:00:00 (CEST)Vlissingen, Nederland (6310): neerslag: 22.04.2017 02:00:00 - 28.04.2017 02:00:00 (CEST)
Datum & Tijd tt [°C] td [°C] tt 5cm [°C] ff [km/u] ff [kn] fx [km/u] fx [kn] dd ppp [hPa] vv [km] rr [mm]
28.04.2017 02:00:00 7,0 6,0 6,7 26 14 - - ZW 1014,8 7 -
28.04.2017 01:00:00 7,1 4,9 6,7 24 13 29 16 ZW 1015,2 10 0,0
28.04.2017 00:00:00 7,4 4,7 7,1 24 13 29 16 ZW 1015,7 10 0,0
27.04.2017 23:00:00 8,2 3,5 7,8 22 12 32 18 W 1016,0 10 0,0
27.04.2017 22:00:00 8,2 2,6 7,7 22 12 32 18 W 1016,4 10 0,0
27.04.2017 21:00:00 8,4 1,9 7,8 21 11 32 18 W 1016,5 10 0,0
27.04.2017 20:00:00 8,2 1,8 7,8 28 15 36 19 W 1016,5 10 0,0
27.04.2017 19:00:00 8,6 1,0 8,5 22 12 32 18 W 1016,6 10 0,0
27.04.2017 18:00:00 9,2 0,7 10,3 24 13 36 19 W 1016,9 10 0,0
27.04.2017 17:00:00 9,4 -0,1 11,4 21 11 32 18 WNW 1017,3 10 0,0
27.04.2017 16:00:00 9,3 0,7 11,9 21 11 32 18 WNW 1017,6 10 0,0
27.04.2017 15:00:00 9,4 1,4 11,7 22 12 32 18 WNW 1018,0 10 0,0
27.04.2017 14:00:00 8,0 2,4 9,7 22 12 43 23 NW 1018,0 10 0,0
27.04.2017 13:00:00 8,2 2,8 8,7 22 12 36 19 W 1017,9 10 0,0
27.04.2017 12:00:00 8,1 2,9 7,8 15 8 29 16 NNW 1018,3 10 0,0
27.04.2017 11:00:00 6,7 3,4 7,3 15 8 22 12 ZW 1018,3 10 0,0
27.04.2017 10:00:00 6,7 3,0 8,6 9 5 14 8 N 1018,3 10 0,0
27.04.2017 09:00:00 5,0 3,2 4,8 16 9 25 14 NNO 1018,2 10 0,7
27.04.2017 08:00:00 5,8 2,1 6,3 5 3 29 16 - 1017,9 10 0,1
27.04.2017 07:00:00 5,3 2,1 4,0 18 10 25 14 W 1017,6 10 0,0
27.04.2017 06:00:00 4,9 1,1 2,5 5 3 11 6 ONO 1017,5 10 0,0
27.04.2017 05:00:00 5,5 1,3 3,8 8 4 14 8 - 1017,4 10 0,2
27.04.2017 04:00:00 4,9 1,8 2,9 8 4 11 6 W 1017,3 10 1,5
27.04.2017 03:00:00 5,4 0,8 3,5 11 6 18 10 NW 1017,4 10 0,0
27.04.2017 02:00:00 5,8 1,2 4,1 13 7 22 12 NW 1017,4 10 0,3
27.04.2017 01:00:00 5,5 0,4 4,0 9 5 29 16 N 1017,6 10 0,0
27.04.2017 00:00:00 5,8 -0,2 4,4 11 6 14 8 N 1017,4 10 0,0
26.04.2017 23:00:00 6,2 -0,3 5,3 24 13 36 19 N 1017,3 10 0,0
26.04.2017 22:00:00 6,7 0,9 5,5 15 8 25 14 N 1016,7 10 0,0
26.04.2017 21:00:00 7,2 1,7 6,3 18 10 29 16 N 1016,3 10 0,0
26.04.2017 20:00:00 7,3 2,0 6,6 26 14 43 23 NNW 1015,9 10 0,0
26.04.2017 19:00:00 8,9 0,3 8,9 24 13 40 21 N 1015,4 10 0,0
26.04.2017 18:00:00 8,8 0,4 9,2 24 13 36 19 N 1015,2 10 0,0
26.04.2017 17:00:00 8,8 0,0 9,1 24 13 43 23 NNW 1015,0 10 0,0
26.04.2017 16:00:00 8,6 1,7 9,9 22 12 36 19 N 1014,9 10 0,0
26.04.2017 15:00:00 8,0 2,1 8,7 26 14 43 23 N 1014,9 10 0,0
26.04.2017 14:00:00 8,3 1,2 9,4 18 10 40 21 N 1014,5 10 0,0
26.04.2017 13:00:00 9,0 -0,1 9,5 21 11 32 18 N 1014,1 10 0,0
26.04.2017 12:00:00 9,2 0,5 12,8 18 10 32 18 NNO 1013,8 10 0,0
26.04.2017 11:00:00 8,5 0,6 10,4 22 12 32 18 N 1013,5 10 0,0
26.04.2017 10:00:00 7,2 1,0 7,4 13 7 25 14 N 1013,1 10 0,0
26.04.2017 09:00:00 7,9 2,0 9,1 9 5 14 8 NW 1013,0 10 0,0
26.04.2017 08:00:00 5,6 1,0 4,8 2 1 11 6 - 1012,6 10 0,0
26.04.2017 07:00:00 5,2 -0,1 3,8 9 5 22 12 NNW 1012,1 10 0,1
26.04.2017 06:00:00 4,8 0,8 3,0 11 6 18 10 N 1011,9 10 0,0
26.04.2017 05:00:00 5,3 1,9 3,2 4 2 14 8 - 1012,1 10 0,0
26.04.2017 04:00:00 5,7 0,7 3,5 9 5 18 10 NW 1011,9 10 0,0
26.04.2017 03:00:00 5,2 1,2 4,0 15 8 29 16 NNW 1011,8 10 0,2
26.04.2017 02:00:00 5,3 1,2 4,1 9 5 22 12 NW 1011,9 10 0,0
26.04.2017 01:00:00 5,5 1,7 4,1 13 7 22 12 NW 1011,8 10 0,0
26.04.2017 00:00:00 5,9 1,5 4,1 13 7 22 12 NW 1011,9 10 0,0
25.04.2017 23:00:00 6,3 1,7 4,4 9 5 18 10 NNW 1011,8 10 0,0
25.04.2017 22:00:00 6,9 1,5 5,6 13 7 18 10 NNW 1011,7 10 0,0
25.04.2017 21:00:00 7,4 0,5 5,4 9 5 18 10 WNW 1011,5 10 0,0
25.04.2017 20:00:00 8,3 -2,6 7,5 18 10 29 16 W 1011,6 10 0,0
25.04.2017 19:00:00 8,2 -2,1 8,3 21 11 32 18 WNW 1011,7 10 0,0
25.04.2017 18:00:00 8,7 -1,3 10,4 24 13 36 19 WNW 1012,0 10 0,0
25.04.2017 17:00:00 8,8 -0,7 11,4 26 14 40 21 WNW 1012,0 10 0,0
25.04.2017 16:00:00 8,2 0,2 9,1 28 15 43 23 WNW 1012,2 10 0,0
25.04.2017 15:00:00 8,9 0,5 10,2 26 14 36 19 NW 1012,2 10 0,0
25.04.2017 14:00:00 8,0 0,8 8,8 31 17 47 25 NW 1011,9 10 0,0
25.04.2017 13:00:00 8,1 0,9 9,2 31 17 47 25 NW 1011,7 10 0,0
25.04.2017 12:00:00 - - - - - - - - - 10 -
25.04.2017 11:00:00 7,8 1,1 8,7 31 17 50 27 NW 1010,6 10 0,0
25.04.2017 10:00:00 7,0 2,0 6,7 29 16 47 25 NW 1010,1 10 0,0
25.04.2017 09:00:00 5,9 0,8 5,7 29 16 47 25 WNW 1009,8 10 0,0
25.04.2017 08:00:00 5,9 0,4 5,4 26 14 40 21 WNW 1009,4 10 0,0
25.04.2017 07:00:00 5,3 -0,3 4,5 22 12 47 25 NW 1008,9 10 0,0
25.04.2017 06:00:00 5,4 -0,6 4,4 24 13 40 21 WNW 1008,7 10 0,0
25.04.2017 05:00:00 6,3 -1,0 5,1 26 14 43 23 NW 1008,5 10 0,0
25.04.2017 04:00:00 6,9 -0,4 5,9 26 14 43 23 NW 1008,4 10 0,0
25.04.2017 03:00:00 7,6 0,5 6,6 31 17 54 29 NW 1008,3 10 0,0
25.04.2017 02:00:00 8,6 2,6 7,5 28 15 54 29 NW 1008,4 10 0,0
25.04.2017 01:00:00 8,7 5,7 7,8 18 10 25 14 W 1008,7 10 0,1
25.04.2017 00:00:00 7,7 4,9 7,0 4 2 14 8 - 1009,1 10 0,1
24.04.2017 23:00:00 8,7 6,9 8,0 15 8 29 16 NNW 1009,8 10 0,9
24.04.2017 22:00:00 8,7 7,8 8,6 22 12 32 18 NNW 1009,9 7 1,2
24.04.2017 21:00:00 11,2 8,4 10,8 29 16 40 21 W 1009,6 10 0,0
24.04.2017 20:00:00 11,5 8,3 11,0 28 15 36 19 WZW 1010,2 10 0,0
24.04.2017 19:00:00 11,6 8,8 11,3 22 12 32 18 WZW 1010,9 10 0,0
24.04.2017 18:00:00 11,5 9,4 11,7 26 14 29 16 WZW 1011,4 9 0,0
24.04.2017 17:00:00 11,6 9,3 12,2 26 14 32 18 W 1012,4 10 0,0
24.04.2017 16:00:00 12,1 9,0 14,0 28 15 40 21 W 1013,0 10 0,0
24.04.2017 15:00:00 12,3 8,6 14,6 35 19 47 25 W 1013,9 10 0,0
24.04.2017 14:00:00 12,3 8,6 13,5 37 20 43 23 W 1014,8 10 0,0
24.04.2017 13:00:00 11,9 7,9 13,7 35 19 43 23 W 1015,5 10 0,0
24.04.2017 12:00:00 11,3 7,9 11,5 37 20 43 23 WZW 1016,1 10 0,0
24.04.2017 11:00:00 10,5 6,1 10,9 31 17 36 19 WZW 1016,7 10 0,0
24.04.2017 10:00:00 10,0 4,7 9,8 24 13 32 18 ZW 1017,1 10 0,0
24.04.2017 09:00:00 9,0 3,8 8,7 28 15 32 18 ZW 1017,6 10 0,0
24.04.2017 08:00:00 8,2 3,2 7,8 29 16 36 19 ZW 1017,9 10 0,0
24.04.2017 07:00:00 7,4 2,9 6,6 26 14 32 18 ZW 1018,1 10 0,0
24.04.2017 06:00:00 7,7 3,0 6,6 26 14 32 18 ZZW 1018,6 10 0,0
24.04.2017 05:00:00 7,9 2,9 6,8 24 13 32 18 ZZW 1019,4 10 0,0
24.04.2017 04:00:00 8,1 3,0 6,7 21 11 25 14 ZW 1020,3 10 0,0
24.04.2017 03:00:00 8,5 3,4 7,7 24 13 29 16 Z 1021,0 10 0,0
24.04.2017 02:00:00 8,6 4,2 8,1 24 13 25 14 Z 1021,8 10 0,0
24.04.2017 01:00:00 9,2 4,0 8,3 16 9 22 12 Z 1022,7 10 0,0
24.04.2017 00:00:00 9,4 3,5 8,1 15 8 22 12 ZZO 1023,4 10 0,0
23.04.2017 23:00:00 9,8 3,3 7,6 11 6 18 10 ZZO 1024,0 10 0,0
23.04.2017 22:00:00 8,4 1,8 2,8 2 1 4 2 - 1024,5 10 0,0
23.04.2017 21:00:00 8,8 -0,3 4,8 4 2 7 4 W 1024,5 10 0,0
23.04.2017 20:00:00 9,9 1,0 9,5 8 4 11 6 WZW 1024,9 10 0,0
23.04.2017 19:00:00 10,5 1,1 11,4 11 6 14 8 WZW 1025,3 10 0,0
23.04.2017 18:00:00 10,8 -0,6 12,6 16 9 22 12 W 1025,6 10 0,0
23.04.2017 17:00:00 10,3 3,2 12,8 21 11 29 16 W 1026,2 10 0,0
23.04.2017 16:00:00 10,4 2,2 13,0 24 13 32 18 W 1026,6 10 0,0
23.04.2017 15:00:00 10,5 2,9 13,7 21 11 29 16 W 1026,9 10 0,0
23.04.2017 14:00:00 9,7 2,8 10,6 15 8 40 21 - 1027,4 10 0,0
23.04.2017 13:00:00 9,9 1,0 12,3 11 6 22 12 NNW 1027,9 10 0,0
23.04.2017 12:00:00 10,3 2,3 11,6 11 6 25 14 NNW 1028,2 10 0,0
23.04.2017 11:00:00 9,5 1,1 11,1 13 7 22 12 N 1028,0 10 0,0
23.04.2017 10:00:00 9,3 1,3 11,1 13 7 25 14 N 1027,9 10 0,0
23.04.2017 09:00:00 8,5 0,8 9,2 13 7 22 12 N 1027,7 10 0,0
23.04.2017 08:00:00 7,0 1,4 6,3 9 5 14 8 NNW 1027,4 10 0,0
23.04.2017 07:00:00 6,0 0,9 4,5 11 6 14 8 NNW 1027,3 10 0,0
23.04.2017 06:00:00 6,1 0,8 4,5 9 5 18 10 NNW 1027,1 10 0,0
23.04.2017 05:00:00 5,9 0,8 4,1 11 6 14 8 NW 1027,0 10 0,0
23.04.2017 04:00:00 6,2 0,3 4,4 9 5 18 10 NNW 1027,2 10 0,0
23.04.2017 03:00:00 6,7 0,7 5,2 13 7 22 12 NW 1027,4 10 0,0
23.04.2017 02:00:00 6,6 1,7 4,9 9 5 14 8 NW 1027,6 10 0,0
23.04.2017 01:00:00 6,4 1,3 4,6 11 6 18 10 NNW 1027,8 10 0,0
23.04.2017 00:00:00 6,6 0,6 5,1 13 7 18 10 NNW 1028,0 10 0,0
22.04.2017 23:00:00 7,2 0,8 6,1 13 7 22 12 N 1027,9 10 0,0
22.04.2017 22:00:00 7,7 1,3 6,8 15 8 22 12 NNW 1027,9 10 0,0
22.04.2017 21:00:00 8,2 1,5 7,6 16 9 29 16 N 1027,6 10 0,0
22.04.2017 20:00:00 8,6 2,1 8,3 18 10 29 16 N 1027,6 10 0,0
22.04.2017 19:00:00 9,2 3,2 9,0 21 11 29 16 N 1027,5 10 0,0
22.04.2017 18:00:00 9,4 4,0 9,8 21 11 32 18 N 1027,4 10 0,0
22.04.2017 17:00:00 9,5 4,2 10,1 21 11 40 21 NNW 1027,6 10 0,0
22.04.2017 16:00:00 10,3 4,0 11,4 22 12 32 18 NNW 1027,8 10 0,0
22.04.2017 15:00:00 11,1 3,9 12,3 21 11 32 18 N 1027,9 10 0,0
22.04.2017 14:00:00 11,4 3,3 13,8 16 9 25 14 N 1028,0 10 0,0
22.04.2017 13:00:00 10,6 3,6 11,6 15 8 29 16 N 1028,6 10 0,0
22.04.2017 12:00:00 10,5 3,4 11,0 18 10 25 14 N 1028,6 10 0,0
22.04.2017 11:00:00 9,7 3,7 9,6 15 8 29 16 NNO 1028,4 10 0,0
22.04.2017 10:00:00 8,7 5,6 10,0 4 2 11 6 - 1028,2 10 0,0
22.04.2017 09:00:00 8,0 4,9 8,2 2 1 4 2 - 1028,0 10 0,0
22.04.2017 08:00:00 7,3 4,9 7,1 11 6 14 8 ONO 1027,7 10 0,1
22.04.2017 07:00:00 7,3 5,1 6,9 16 9 29 16 NO 1027,2 10 0,3
22.04.2017 06:00:00 7,9 5,7 7,7 28 15 40 21 NNO 1026,6 10 0,0
22.04.2017 05:00:00 8,6 7,1 8,5 28 15 36 19 NNO 1026,3 10 0,0
22.04.2017 04:00:00 11,5 7,1 10,8 16 9 32 18 WNW 1026,2 10 0,0
22.04.2017 03:00:00 11,6 7,4 10,9 16 9 25 14 WNW 1026,4 10 0,0
22.04.2017 02:00:00 11,4 8,0 10,7 16 9 22 12 W 1026,9 10 0,0

tt = temperatuur
td = dauwpunt
tt 5cm = temperatuur 5cm
ff = windsnelheid
fx = windstoten
dd = windrichting
ppp = luchtdruk
vv = zicht
rr = neerslag

Weerstations in de omgeving